Hlavní strana
METAR-TAF:

METAR-TAF

Letiště :

Draugen, Norsko

zeměpisná šířka: 64-21-20N, zeměpisná délka: 007-47-30E, výška: 0 m

Aktuální stav počasí

Zpráva byla vytvořena před 37 minutami, v 22:50 UTC
Jihozápadní vítr 46 kt
Teplota 10°C
Vlhkost vzduchu 100%
Tlak 1004 hPa

METAR: ENDR 202250Z AUTO 22046KT 10/10 Q1004

Čas: 01:27 (23:27 UTC)


TAF: chybějící

Stav a předpovědi počasí z více než 4 000 letišť (zprávy METAR a TAF).

Červené a žluté tečky na mapě představují dostupné meteorologické stanice.

Když kurzor umístíte na tečku, zobrazí se název stanice.

Pak kliknutím zobrazíte stav a předpověď počasí.

Chcete-li změnit mapu, kliknutím na zelené tlačítko se znaménkem +mapu přiblížíte, kliknutím na zelené tlačítko se znaménkem – mapu oddálíte a kliknutím na zelené šipky přejdete na sousední mapy.


METAR-TAF: